PDT,Max TemperatureF,Mean TemperatureF,Min TemperatureF,Max Dew PointF,MeanDew PointF,Min DewpointF,Max Humidity, Mean Humidity, Min Humidity, Max Sea Level PressureIn, Mean Sea Level PressureIn, Min Sea Level PressureIn, Max VisibilityMiles, Mean VisibilityMiles, Min VisibilityMiles, Max Wind SpeedMPH, Mean Wind SpeedMPH, Max Gust SpeedMPH,PrecipitationIn, CloudCover, Events, WindDirDegrees
2012-6-1,107,92,79,34,26,17,16,10,4,29.78,29.71,29.64,10,8,7,25,7,31,0.00,0,,248
2012-6-2,100,88,75,44,28,10,25,13,5,29.86,29.72,29.65,10,9,7,21,9,30,0.00,1,,271
2012-6-3,99,86,73,45,39,27,35,21,10,29.81,29.76,29.73,10,8,7,21,8,32,0.00,2,,215
2012-6-4,97,82,69,45,38,33,38,22,12,29.91,29.78,29.72,10,8,7,28,9,33,0.00,0,,271
2012-6-5,84,72,60,48,34,16,58,31,9,29.90,29.83,29.76,10,8,7,22,17,30,0.00,0,,307
2012-6-6,88,72,57,29,20,12,31,16,7,29.87,29.82,29.74,10,8,7,20,13,28,0.00,0,,302
2012-6-7,96,80,64,33,25,15,29,15,5,29.86,29.81,29.75,10,9,7,16,8,,0.00,0,,280
2012-6-8,98,84,71,39,33,28,26,17,10,29.79,29.73,29.65,10,8,7,25,10,29,0.00,0,,261
2012-6-9,97,83,69,39,33,22,31,19,7,29.72,29.66,29.57,10,9,7,20,9,26,0.00,0,,300
2012-6-10,91,80,68,36,12,1,28,11,4,29.88,29.82,29.72,10,9,7,17,10,23,0.00,0,,296
2012-6-11,99,82,66,32,11,2,16,7,4,29.91,29.87,29.83,10,8,7,12,5,,0.00,0,,309
2012-6-12,102,87,72,33,25,18,19,11,5,29.91,29.84,29.75,10,8,7,15,6,,0.00,0,,272
2012-6-13,102,88,77,36,25,16,18,11,5,29.78,29.70,29.61,10,8,7,17,9,21,0.00,0,,273
2012-6-14,100,84,70,38,29,16,27,15,5,29.73,29.69,29.65,10,9,7,18,8,23,0.00,0,,233
2012-6-15,97,84,71,37,29,19,26,16,7,29.76,29.72,29.68,10,9,7,16,7,22,0.00,1,,113
2012-6-16,97,82,66,32,25,18,23,13,6,29.88,29.82,29.75,10,10,7,16,7,24,0.00,0,,153
2012-6-17,106,84,64,32,28,24,23,13,7,29.93,29.84,29.76,10,10,9,17,4,22,0.00,,,224
2012-6-18,106,90,75,28,19,8,14,8,4,29.84,29.75,29.68,10,9,7,28,11,39,0.00,0,,266
2012-6-19,104,90,78,38,22,0,19,10,4,29.72,29.67,29.61,10,9,7,29,18,39,0.00,0,,310
2012-6-20,105,89,73,33,26,19,21,11,5,29.74,29.70,29.65,10,8,7,15,9,24,0.00,0,,286
2012-6-21,104,88,73,40,31,14,23,14,4,29.78,29.73,29.67,10,9,7,26,8,32,0.00,0,,263
2012-6-22,98,85,72,39,26,0,26,14,4,29.83,29.73,29.65,10,9,7,21,10,26,0.00,0,,294
2012-6-23,98,82,66,42,33,21,39,20,7,29.76,29.70,29.65,10,10,9,17,8,24,0.00,,,228
2012-6-24,100,83,66,39,33,14,34,18,5,29.88,29.82,29.77,10,10,10,18,7,23,0.00,,,242
2012-6-25,100,83,66,34,23,9,29,13,4,29.98,29.84,29.76,10,9,7,23,10,28,0.00,0,,247
2012-6-26,100,83,66,31,22,9,25,12,4,29.86,29.78,29.68,10,9,7,15,11,21,0.00,0,,261
2012-6-27,104,86,69,34,29,18,25,14,5,29.86,29.78,29.73,10,9,7,15,9,20,0.00,1,,260
2012-6-28,107,90,75,39,29,21,19,12,7,29.93,29.88,29.83,10,9,7,20,9,25,0.01,0,,246
2012-6-29,105,88,73,29,17,-2,15,9,4,29.95,29.88,29.80,10,9,7,22,11,29,0.00,0,,283
2012-6-30,102,87,72,35,24,5,21,12,4,29.87,29.80,29.71,10,10,9,15,8,20,0.00,,,296